AirNav   TITAN Aviation Fuels
 
 1214 users online  

55AR Silver Wings Field Airport
Eureka Springs, Arkansas, USA

GOING TO EUREKA SPRINGS?


FAA INFORMATION EFFECTIVE 22 APRIL 2021

Location

FAA Identifier: 55AR
Lat/Long: 36-25-47.0000N 093-41-44.0000W
36-25.783333N 093-41.733333W
36.4297222,-93.6955556
(estimated)
Elevation: 1571 ft. / 479 m (estimated)
Variation: 03E (2000)
From city: 3 miles NE of EUREKA SPRINGS, AR
Time zone: UTC -5 (UTC -6 during Standard Time)
Zip code: 72632

Airport Operations

Airport use: Private use. Permission required prior to landing
Activation date: 09/2002
Control tower: no
ARTCC: MEMPHIS CENTER
FSS: JONESBORO FLIGHT SERVICE STATION
Attendance: UNATNDD
Wind indicator: yes
Segmented circle: no

Nearby radio navigation aids

VOR radial/distance  VOR name  Freq  Var
RZCr058/23.3RAZORBACK VORTAC116.4004E
HROr282/24.2HARRISON VOR/DME112.5004E

Airport Services

Runway Information

Runway 16/34

Dimensions: 1900 x 65 ft. / 579 x 20 m
Surface: turf, in good condition
RUNWAY 16  RUNWAY 34
Traffic pattern: rightleft

Airport Ownership and Management from official FAA records

Ownership: Privately-owned
Owner: AVIATION CADET MUSEUM INC
542 CR 2073
EUREKA SPRINGS, AR 72632
Phone (479) 253-2008
OR 479-253-5008.
Manager: ERROL D. SEVERE
542 CR 2073
EUREKA SPRINGS, AR 72632
Phone 479-253-5008

Airport Operational Statistics

Aircraft based on the field: 1
Single engine airplanes: 1
    
Aircraft operations: 48/year *
100% transient general aviation
* for 12-month period ending 31 August 2007

Additional Remarks

RADIO CONTROLLED MODEL ACFT INVOF RY ON THE SE END.
NO LNDGS RY 34. ALL TKOFS WILL BE TO THE N AND ALL LNDGS WILL BE FM THE N.
ALL PILOTS MUST CONTACT AMGR AT 479-253-5008 TO OBTAIN PMSN TO LND.
FOR CD CTC RAZORBACK APCH 479-649-2416, WHEN APCH CLSD CTC MEMPHIS ARTCC AT 901-368-8453/8449.

Instrument Procedures

There are no published instrument procedures at 55AR.

Some nearby airports with instrument procedures:

4M1 - Carroll County Airport (4 nm SE)
94K - Cassville Municipal Airport (19 nm NW)
KROG - Rogers Executive Airport - Carter Field (20 nm W)
H34 - Huntsville Municipal Airport (21 nm S)
KFWB - Branson West Municipal Airport - Emerson Field (21 nm NE)
 
Loc | Ops | Rwys | IFR | FBO | Links
Com | Nav | Svcs | Stats | Notes
Aerial photo
WARNING: Photo may not be current or correct
Aerial photo of 55AR (Silver Wings Field Airport)
Photo taken 08-May-2015
looking southwest.

Do you have a better or more recent aerial photo of Silver Wings Field Airport that you would like to share? If so, please send us your photo.

 
Sectional chart

 
Airport distance calculator
Flying to Silver Wings Field Airport? Find the distance to fly.

From to 55AR

Sunrise and sunset
Times for 06-May-2021
 Local
(UTC-5)
 Zulu
(UTC)
Morning civil twilight05:4910:49
Sunrise06:1711:17
Sunset20:0601:06
Evening civil twilight20:3401:34

Current date and time
Zulu (UTC)  07-May-2021 02:26:13
Local (UTC-5)  06-May-2021 21:26:13
 
METAR
KROG 
19nm W 
070158Z AUTO 00000KT 10SM CLR 14/04 A3021 RMK AO2 SLP225 T01440044
KFWB 
21nm NE 
070215Z AUTO 36005KT 10SM CLR 13/05 A3020 RMK AO2
KBBG 
25nm E 
070215Z AUTO 34006KT 10SM FEW027 SCT037 12/04 A3021 RMK AO2
KVBT 
26nm W 
070156Z AUTO 32003KT 10SM CLR 15/04 A3023 RMK AO2 SLP234 T01500039 TSNO
KASG 
26nm SW 
070148Z 32006KT 10SM CLR 15/03 A3021
KHRO 
28nm E 
062253Z AUTO 32014G21KT 10SM CLR 20/03 A3016 RMK AO2 SLP207 T02000033
KXNA 
30nm W 
070153Z 32004KT 10SM CLR 13/03 A3021 RMK AO2 SLP224 T01330033
KHFJ 
32nm NW 
070215Z AUTO 01005KT 10SM CLR 11/04 A3020 RMK AO2
KFYV 
34nm SW 
070153Z 33005KT 10SM CLR 14/04 A3020 RMK AO2 SLP221 T01390044
TAF
KROG 
19nm W 
061732Z 0618/0718 34011G20KT P6SM FEW050 FEW250 FM070300 09004KT P6SM FEW250 FM071500 14006KT P6SM BKN100 TEMPO 0715/0718 5SM -SHRA BKN080
NOTAMs
Click for the latest NOTAMs
NOTAMs are issued by the DoD/FAA and will open in a separate window not controlled by AirNav.

 

 
 

Things to do: Attractions on or near the airport

  
 Business Name 
 
 Contact 
 
 Services / Description 
 
Distance
 
Comments
  
Aviation Cadet World 479-253-5008
no information available

If you are affiliated with Aviation Cadet World and would like to show here your services, contact info, web link, logo, and more, click here
on airport  
   write
 

Would you like to see your business listed on this page?

 If your business provides an interesting product or service to pilots, flight crews, aircraft, or users of the Silver Wings Field Airport, you should consider listing it here.  To start the listing process, click on the button below
 
Add a business
 

Other Pages about Silver Wings Field Airport

Update a link
 
Copyright © AirNav, LLC. All rights reserved. Privacy Policy  Contact